Location: Kalberh�ni
(46.4610°N, 7.2453°E)
Time: 07:03:58
(UTC+00:00)

SL-8 R/B - Pass Details

Date: 20 June 2021
Orbit: 656 x 667 km, 48.4° (Epoch: 28 July)

Event Time Altitude Azimuth Distance (km) Brightness Sun altitude
Rises 20:10:21 0° 288° (WNW) 2,996 8.4 -6.5°
Reaches altitude 10° 20:12:43 10° 286° (WNW) 2,080 7.4 -6.8°
Maximum altitude 20:17:28 65° 205° (SSW) 726 3.8 -7.3°
Drops below altitude 10° 20:22:12 10° 124° (SE) 2,066 5.6 -7.9°
Enters shadow 20:22:20 - 124° (SE) 2,122 5.7 -7.9°
